{"data":{"norad_id":59488,"intl_designator":"2024-071E","name":"STARLINK-31754","alt_names":[],"object_type":"PAYLOAD","status":"ACTIVE","operator":null,"country":"US","launch_date":"2024-04-13","launch_site_code":"AFETR","launch_vehicle":null,"mission":null,"orbit_class":"UNKNOWN","rcs_meters":null,"size_class":null,"mass_kg":null,"dimensions":null,"purposes":["comms"],"wikipedia_slug":null,"has_3d_model":false,"image_url":null,"decayed_at":null,"tle_current":{"epoch":"2026-05-24T18:28:29.148384Z","epoch_age_seconds":109093,"freshness":"FRESH","line1":"1 59488U 24071E   26144.76978181 -.00000041  00000+0  80472-5 0  9993","line2":"2 59488  43.0017 277.6533 0001153 279.9505  80.1216 15.27574232119750","mean_motion":15.27574232,"eccentricity":0.0001153,"inclination_deg":43.0017,"raan_deg":277.6533,"arg_perigee_deg":279.9505,"mean_anomaly_deg":80.1216,"bstar":8.0472e-6,"rev_number":11975,"period_min":94.267104657471,"perigee_km":482.27527081275,"apogee_km":483.85746430931,"semimajor_km":6861.203367561,"source":"CELESTRAK","updated_at":"2026-05-25T13:38:18.953279Z"}}}